Location: Sternwarte_Laufen
(47.9344°N, 12.9346°E)
Time: 21:11:26
(UTC+02:00)

ISS - Visible Passes

Search period start: 12 October 2024 00:00
Search period end: 22 October 2024 00:00
Orbit: 411 x 424 km, 51.6° (Epoch: 12 October)

Date Brightness Start Highest point End Pass type
(mag) Time Alt. Az. Time Alt. Az. Time Alt. Az.
16 Oct -0.5 06:24:32 10° SE 06:25:17 11° SE 06:26:01 10° ESE visible
18 Oct -1.6 06:22:08 10° SSW 06:24:53 24° SE 06:27:39 10° E visible
19 Oct -1.1 05:34:53 12° S 05:36:38 16° SE 05:38:45 10° E visible
20 Oct -3.2 06:21:50 14° SW 06:24:29 53° SSE 06:27:45 10° ENE visible
21 Oct -2.6 05:35:39 33° SSE 05:36:02 35° SE 05:39:07 10° ENE visible
